Date,TemperatureHighF,TemperatureAvgF,TemperatureLowF,DewpointHighF,DewpointAvgF,DewpointLowF,HumidityHigh,HumidityAvg,HumidityLow,PressureMaxIn,PressureMinIn,WindSpeedMaxMPH,WindSpeedAvgMPH,GustSpeedMaxMPH,PrecipitationSumIn
2013-1-1,56.3,48.2,38.5,53.4,41.6,28.0,92,79,54,30.29,30.03,15,5,15,0.00
2013-1-2,44.6,37.5,31.3,28.8,22.3,19.8,69,55,39,30.38,30.27,11,4,11,0.00
2013-1-3,44.4,37.4,27.7,27.3,23.1,20.2,77,58,41,30.47,30.35,12,4,12,0.00
2013-1-4,41.7,38.5,33.3,36.0,30.7,23.3,83,74,49,30.53,30.41,9,2,9,0.00
2013-1-5,54.3,44.5,38.5,42.7,34.5,28.5,85,69,46,30.44,30.26,10,2,10,24.99
2013-1-6,57.4,42.5,33.1,33.2,26.3,20.1,87,57,28,30.44,30.32,15,4,15,0.05
2013-1-7,54.7,41.7,29.3,33.5,25.5,19.5,73,54,36,30.38,30.12,14,4,14,0.05
2013-1-8,51.8,48.8,46.0,48.7,42.9,30.1,92,81,52,30.12,29.94,12,4,12,26.21
2013-1-9,58.1,54.6,50.9,56.4,52.8,48.7,94,94,92,30.09,29.91,23,5,23,0.98
2013-1-10,62.6,53.3,46.2,52.5,42.2,34.9,94,70,39,30.09,30.03,26,6,26,0.05
2013-1-11,73.4,58.7,43.9,55.1,45.5,34.0,76,63,42,30.06,29.85,24,6,24,0.05
2013-1-12,73.6,64.9,47.1,68.1,54.7,27.9,87,71,37,29.91,29.73,18,7,18,0.05
2013-1-13,49.8,41.9,36.0,28.3,20.7,16.5,50,43,34,30.24,29.91,19,8,19,0.05
2013-1-14,49.1,38.4,30.9,22.7,17.6,12.9,51,43,33,30.29,30.15,17,8,17,0.05
2013-1-15,39.4,36.2,34.3,30.2,25.3,15.7,83,66,46,30.27,30.15,18,7,18,0.05
2013-1-16,50.5,38.3,27.7,19.5,14.4,10.2,51,38,24,30.35,30.21,17,6,17,0.05
2013-1-17,63.0,47.1,33.1,30.6,23.5,13.7,59,40,26,30.53,30.29,15,5,15,0.05
2013-1-18,64.2,47.1,31.5,37.8,25.5,21.2,72,46,25,30.53,30.35,15,4,15,0.00
2013-1-19,69.1,52.4,39.4,48.7,33.3,23.5,75,50,30,30.35,30.18,16,6,16,0.00
2013-1-20,72.3,51.4,39.4,44.4,33.2,29.4,74,52,23,30.29,30.12,12,3,13,0.00
2013-1-21,68.0,51.6,42.6,47.4,38.1,34.4,79,62,34,30.29,30.18,10,3,10,0.00
2013-1-22,62.1,57.6,54.7,39.3,37.9,36.7,56,48,39,30.29,30.24,6,3,6,0.00
2013-1-23,73.4,60.6,50.0,55.5,45.4,39.1,79,59,38,30.35,30.24,15,6,17,0.00
2013-1-24,76.5,65.6,52.0,63.2,50.5,43.7,82,61,33,30.29,30.12,16,5,17,0.00
2013-1-25,74.7,67.1,54.9,57.2,51.5,41.7,81,62,34,30.15,28.94,17,7,20,0.00
2013-1-26,62.8,56.6,50.0,51.3,46.1,40.2,80,68,61,30.17,30.05,9,4,9,0.00
2013-1-27,74.5,67.8,62.8,59.0,52.7,50.8,67,59,49,30.08,29.93,24,10,24,0.00
2013-1-28,74.5,74.5,74.5,54.1,54.1,54.1,49,49,49,29.99,29.84,26,11,33,0.00
2013-1-29,74.5,73.9,55.8,54.1,53.0,20.3,49,48,25,29.84,29.49,30,12,30,0.00
2013-1-30,56.8,50.2,39.9,21.0,15.4,5.7,39,25,17,30.17,29.78,25,8,28,0.00
2013-1-31,67.8,51.4,31.6,22.0,13.4,7.6,44,24,12,30.26,30.14,17,6,20,0.00
2013-2-1,63.9,49.4,38.7,27.0,19.9,10.4,44,31,21,30.32,30.14,11,3,13,0.00
2013-2-2,74.1,59.4,42.4,49.8,37.3,26.0,72,46,29,30.29,30.14,17,5,17,0.00
2013-2-3,71.4,60.5,42.8,36.2,31.6,26.5,59,35,22,30.32,29.99,15,5,15,0.00
2013-2-4,75.6,67.8,60.3,53.9,40.9,31.9,70,39,28,29.99,29.78,23,7,23,0.00
2013-2-5,75.6,65.0,48.7,43.8,41.4,29.9,74,43,23,29.99,29.84,11,3,11,0.00
2013-2-6,75.6,67.0,59.0,54.9,44.9,37.5,71,46,38,29.96,29.81,14,6,15,0.00
2013-2-7,77.0,69.0,60.4,58.9,48.5,28.5,79,50,21,30.08,29.87,15,6,17,0.00
2013-2-8,68.2,63.7,45.3,29.6,24.1,16.9,52,23,15,30.23,30.08,16,6,16,0.00
2013-2-9,64.0,60.5,54.9,52.5,38.0,17.0,77,53,16,30.08,29.75,26,9,26,0.00
2013-2-10,66.4,60.8,59.7,52.5,41.1,23.9,77,55,22,29.99,29.70,25,6,26,0.08
2013-2-11,59.7,56.0,51.3,41.5,32.3,23.9,68,43,25,30.05,29.96,16,4,17,0.00
2013-2-12,67.3,54.1,49.5,49.8,40.7,18.5,88,70,17,30.02,29.81,23,6,23,0.00
2013-2-13,62.2,53.6,36.9,29.1,23.9,19.5,71,34,19,30.14,30.02,15,5,15,0.00
2013-2-14,67.1,42.2,0.0,56.2,31.6,0.0,74,66,22,30.11,29.96,16,5,17,0.00
2013-2-15,67.1,67.1,67.1,56.2,56.2,56.2,68,68,68,30.37,30.02,18,6,19,0.00
2013-2-16,67.1,67.1,67.1,56.2,56.2,56.2,68,68,68,30.43,30.20,15,4,15,0.00
2013-2-17,67.1,67.1,67.1,56.2,56.2,56.2,68,68,68,30.20,30.11,19,8,19,0.00
2013-2-25,0.0,0.0,0.0,0.0,0.0,0.0,0,0,100,29.81,29.64,37,17,37,0.00
2013-2-26,0.0,0.0,0.0,0.0,0.0,0.0,0,0,100,29.84,29.81,21,12,28,0.00
2013-2-28,0.0,0.0,0.0,0.0,0.0,0.0,0,0,100,30.20,30.20,3,3,3,0.00
2013-3-26,54.0,54.0,54.0,49.6,49.6,49.6,85,85,85,30.43,30.26,13,4,13,0.00
2013-3-27,54.0,54.0,54.0,49.6,49.6,49.6,85,85,85,30.29,30.11,23,8,23,0.00
2013-3-28,72.7,54.8,54.0,50.4,49.6,47.6,85,83,42,30.17,30.11,20,7,20,0.00
2013-3-29,80.4,68.7,57.4,57.9,49.3,43.6,80,53,30,30.14,30.02,23,9,23,0.00
2013-3-30,87.1,72.4,63.1,63.7,59.3,54.3,91,66,44,30.08,29.87,23,8,24,0.00
2013-3-31,79.5,70.0,62.8,71.6,63.8,56.0,99,82,56,29.96,29.84,23,5,23,0.24
2013-4-1,87.1,71.5,57.4,67.6,60.4,56.3,99,72,44,30.05,29.87,20,4,20,0.00
2013-4-2,81.3,69.1,62.1,72.3,63.7,60.8,100,84,56,29.96,29.84,22,7,22,2.09
2013-4-3,62.4,52.5,47.8,62.4,52.5,47.8,100,100,95,30.14,29.84,35,6,35,0.16
2013-4-4,61.2,50.7,45.0,48.0,42.5,36.8,100,76,53,30.23,30.08,17,6,18,0.00
2013-4-5,74.7,62.2,37.6,53.7,46.7,35.5,98,61,42,30.26,30.02,10,4,10,0.00
2013-4-6,80.8,64.9,51.1,58.4,52.3,45.5,92,66,46,30.05,29.84,26,9,26,0.00
2013-4-7,84.7,69.3,61.0,65.6,60.4,55.6,90,75,50,29.90,29.72,19,9,20,0.00
2013-4-8,75.9,69.4,66.2,69.7,64.4,60.9,92,84,73,29.81,29.64,27,10,28,0.00
2013-4-9,88.2,74.5,69.1,69.4,66.6,64.5,95,78,50,29.70,29.58,26,12,26,0.00
2013-4-10,73.8,56.1,42.4,68.9,50.0,40.5,100,81,55,29.93,29.61,30,10,30,0.00
2013-4-11,69.6,55.3,43.3,45.4,39.0,32.3,81,56,40,29.96,29.78,15,5,15,0.08
2013-4-12,81.9,62.9,43.7,52.3,45.5,38.2,86,56,35,29.99,29.84,16,5,16,0.00
2013-4-13,79.0,64.5,53.1,62.2,52.1,43.5,86,66,42,29.93,29.75,14,5,14,0.04
2013-4-14,90.5,72.2,57.6,66.5,59.3,52.6,95,68,38,29.81,29.58,18,7,20,0.00
2013-4-15,91.0,78.2,68.9,70.3,65.4,59.3,96,68,43,29.78,29.64,24,10,24,0.00
2013-4-16,89.8,77.0,67.6,67.8,65.3,63.0,86,69,47,29.87,29.75,22,10,23,0.00
2013-4-17,86.5,76.7,72.5,72.0,69.3,66.1,96,79,53,29.87,29.67,25,11,25,0.00
2013-4-18,74.8,64.3,49.1,72.8,57.8,41.5,98,81,50,29.93,29.61,29,12,29,0.00
2013-4-19,68.5,53.7,40.6,39.0,34.3,29.4,70,50,30,30.29,30.08,17,6,19,0.00
2013-4-20,74.3,58.7,43.9,43.0,35.7,28.9,56,43,28,30.20,29.96,19,8,24,0.00
2013-4-21,81.1,64.5,49.8,57.2,50.4,41.9,83,62,44,30.14,29.99,17,7,21,0.00
2013-4-22,84.7,70.5,56.1,61.9,57.2,52.6,93,65,44,30.08,29.84,20,8,20,0.00
2013-4-23,81.0,65.0,50.2,65.9,55.2,39.3,87,71,46,30.08,29.81,17,7,21,0.00
2013-4-24,66.2,53.0,43.2,41.2,37.0,30.8,79,56,40,30.26,30.08,17,9,20,0.00
2013-4-25,67.8,60.2,55.2,46.1,42.3,38.2,58,52,44,30.32,30.17,15,6,15,0.00
2013-4-26,81.0,68.1,59.2,72.5,59.5,43.2,96,75,48,30.17,29.99,17,7,18,0.00
2013-4-27,87.1,75.0,68.5,77.0,65.9,59.1,96,75,49,30.08,29.93,16,5,17,0.00
2013-4-28,88.5,75.8,63.0,71.4,61.8,54.3,94,65,40,30.02,29.84,15,6,16,0.00
2013-4-29,91.0,74.9,65.3,71.6,63.0,58.6,95,69,40,29.93,29.75,22,7,22,0.00
2013-4-30,87.6,74.1,63.9,70.4,62.9,58.9,96,71,45,29.84,29.70,14,6,14,0.00
2013-5-1,91.2,77.7,66.7,69.5,64.5,59.2,94,67,43,29.90,29.75,17,6,17,0.00
2013-5-2,75.6,57.9,46.8,64.9,53.7,34.7,100,86,58,30.35,29.84,26,8,26,0.47
2013-5-3,68.5,54.3,41.7,39.8,35.7,31.6,71,52,32,30.35,30.05,19,7,21,0.00
2013-5-4,83.5,64.9,45.7,49.3,40.0,29.8,57,42,26,30.08,29.87,15,5,17,0.00
2013-5-5,76.1,56.5,44.1,50.5,41.1,34.5,76,57,40,30.14,29.96,15,4,17,0.00
2013-5-6,79.5,64.5,49.3,53.2,47.6,41.1,79,56,39,30.14,29.99,13,3,13,0.00
2013-5-7,87.8,69.5,50.9,60.2,51.3,44.5,83,56,34,30.08,29.90,17,5,17,0.00
2013-5-8,84.0,73.1,63.0,64.5,59.4,49.9,86,63,48,29.99,29.87,20,8,21,0.00
2013-5-9,76.3,70.5,63.5,69.2,65.6,59.1,100,85,66,29.99,29.84,21,6,21,0.08
2013-5-10,88.7,70.3,61.0,73.0,62.8,56.6,100,80,43,30.02,29.81,31,6,31,0.12
2013-5-11,81.5,69.3,60.4,66.0,58.6,48.8,100,74,39,30.14,29.99,19,6,20,0.00
2013-5-12,82.2,72.8,54.5,57.2,52.4,44.4,89,52,36,30.26,30.11,14,6,15,0.00
2013-5-13,89.1,70.3,50.0,60.8,51.1,43.8,85,54,33,30.26,30.11,15,4,15,0.00
2013-5-14,88.9,74.6,60.6,65.7,58.0,49.9,83,58,36,30.20,29.96,19,8,21,0.00
2013-5-15,87.8,75.5,65.5,74.4,68.0,61.4,100,79,53,30.08,29.78,25,10,28,0.31
2013-5-16,90.5,77.6,69.3,78.7,71.1,67.6,100,83,50,29.87,29.70,26,8,26,0.04
2013-5-17,95.9,83.4,73.0,73.8,71.7,68.9,93,71,44,29.84,29.75,18,8,21,0.00
2013-5-18,97.0,82.7,71.1,74.6,68.3,62.0,93,65,41,29.84,29.84,26,11,26,0.00
2013-5-19,94.6,82.0,71.1,71.7,67.7,62.4,91,64,45,29.84,29.70,23,11,28,0.00
2013-5-20,96.4,82.6,72.0,71.6,68.6,64.1,91,65,43,29.81,29.67,23,10,23,0.00
2013-5-21,92.1,79.4,70.3,71.4,68.0,55.8,90,70,48,29.87,29.70,20,9,23,0.00
2013-5-22,95.7,78.1,56.5,70.0,59.5,52.3,88,56,33,29.93,29.78,14,4,14,0.00
2013-5-23,90.7,81.4,73.0,71.9,70.1,68.2,92,70,52,30.02,29.87,17,7,17,0.00
2013-5-24,80.6,73.7,68.0,73.4,69.4,63.8,100,87,71,30.11,29.99,17,5,20,0.55
2013-5-25,83.7,71.3,68.0,75.2,69.3,65.6,100,94,62,30.11,30.02,20,5,22,1.73
2013-5-26,89.2,76.2,70.7,77.0,71.4,65.6,99,86,57,30.08,29.96,20,7,20,0.00
2013-5-27,89.4,77.8,70.5,73.2,69.5,66.5,93,77,54,29.99,29.81,20,9,20,0.00
2013-5-28,90.9,79.4,71.2,71.3,68.3,65.7,89,70,49,29.90,29.75,24,11,25,0.00
2013-5-29,88.2,77.8,73.0,75.2,70.1,68.1,89,78,56,29.87,29.69,30,12,37,0.00
2013-5-30,90.0,79.9,74.1,73.7,70.7,69.3,88,75,55,29.81,29.72,26,9,26,0.00
2013-5-31,94.1,82.5,75.2,74.8,72.0,69.0,89,72,53,29.87,29.72,22,10,23,0.00
2013-6-1,96.8,84.2,75.0,74.9,71.9,69.6,89,69,46,29.87,29.75,23,7,24,0.00
2013-6-2,88.5,76.8,68.0,73.7,66.6,60.4,97,74,41,30.08,29.87,17,5,17,0.08
2013-6-3,93.9,78.8,63.0,72.2,63.8,59.3,93,63,39,29.99,29.84,13,4,13,0.00
2013-6-4,94.1,81.6,70.3,73.4,65.6,60.2,94,61,42,29.90,29.78,18,7,18,0.00
2013-6-5,95.2,81.6,69.8,72.8,66.7,61.5,93,63,41,29.87,29.75,21,7,21,0.00
2013-6-6,98.2,82.7,71.6,72.1,66.0,60.6,91,60,36,29.90,29.78,18,6,19,0.00
2013-6-7,88.7,76.8,67.3,65.9,60.7,54.9,89,60,36,30.02,29.87,14,4,14,0.00
2013-6-8,93.7,77.8,61.7,67.9,61.2,53.2,77,58,43,29.93,29.78,17,6,17,0.00
2013-6-9,91.2,79.8,68.0,74.5,69.0,62.6,95,72,47,29.99,29.84,16,6,17,0.00
2013-6-10,98.8,83.7,70.2,76.7,67.3,59.4,95,62,33,29.99,29.90,14,5,15,0.00
2013-6-11,97.5,83.8,73.6,77.4,68.9,63.0,94,64,41,30.02,29.93,24,6,24,0.00
2013-6-12,97.9,84.2,73.6,76.8,69.8,66.0,94,65,41,30.05,29.93,20,7,20,0.00
2013-6-13,78.3,76.7,75.4,71.2,69.7,67.3,87,79,70,29.99,29.99,11,6,13,0.00
2013-6-17,99.9,86.7,75.4,74.3,70.1,65.1,87,61,38,30.02,29.84,19,7,19,0.00
2013-6-18,94.6,81.8,70.3,79.0,71.0,63.2,100,72,46,30.02,29.87,14,4,14,0.24
2013-6-19,99.7,85.4,74.3,78.5,70.2,65.3,94,63,39,29.96,29.90,17,5,17,0.00
2013-6-20,97.2,85.3,73.6,73.2,68.1,62.2,87,59,37,30.05,29.93,20,9,21,0.00
2013-6-21,97.9,86.1,75.0,75.2,68.1,59.5,89,59,34,30.08,29.96,23,9,23,0.00
2013-6-22,99.3,85.7,73.6,76.7,67.2,61.3,88,57,34,30.09,29.91,18,8,19,0.00
2013-6-23,97.2,85.2,74.5,73.5,66.4,59.5,87,56,33,30.03,29.91,19,9,20,0.00
2013-6-24,100.4,85.9,74.1,74.1,68.2,60.8,90,59,35,30.06,29.91,23,10,24,0.00
2013-6-25,100.2,87.8,76.3,72.5,68.3,64.1,84,56,33,30.03,29.88,23,11,24,0.00
2013-6-26,101.1,86.6,75.9,73.8,69.3,64.2,82,59,34,30.00,29.91,22,9,22,0.00
2013-6-27,104.0,88.7,75.0,74.6,66.7,55.8,85,52,29,30.06,29.94,17,7,18,0.00
2013-6-28,108.0,90.8,73.2,73.4,66.1,57.6,79,48,29,30.03,29.85,13,4,13,0.00
2013-6-29,109.8,93.6,75.9,71.4,64.3,59.4,60,40,25,29.91,29.79,15,5,15,0.00
2013-6-30,95.9,83.7,68.5,83.7,65.5,58.2,100,57,39,30.00,29.85,18,4,18,0.31
2013-7-1,91.9,80.0,68.5,64.8,57.2,52.6,68,47,33,30.06,29.91,22,5,22,0.00
2013-7-2,94.5,78.7,65.3,61.6,54.8,45.6,70,47,28,30.12,30.00,16,4,18,0.00
2013-7-3,96.4,78.5,61.7,59.5,52.5,44.9,71,43,26,30.09,29.94,17,3,18,0.00
2013-7-4,96.4,82.0,67.3,67.6,58.3,49.1,78,47,32,30.03,29.91,15,4,15,0.00
2013-7-5,100.9,86.2,70.0,71.0,61.1,54.4,78,45,30,30.03,29.88,17,6,20,0.00
2013-7-6,99.7,86.6,71.2,73.6,64.2,57.9,80,50,31,29.97,29.85,16,6,17,0.00
2013-7-7,100.4,86.2,73.9,78.1,68.6,62.3,87,59,35,30.03,29.91,24,6,24,0.00
2013-7-8,90.7,81.4,75.2,77.7,71.6,66.6,89,73,49,30.15,30.00,15,6,15,0.20
2013-7-9,100.6,85.9,73.4,78.7,70.1,65.6,95,64,34,30.18,30.03,17,7,20,0.00
2013-7-10,103.1,88.4,73.6,78.2,69.0,62.9,91,57,32,30.12,29.94,21,5,22,0.00
2013-7-11,103.3,89.2,75.6,75.2,68.4,61.3,82,54,31,30.06,29.91,17,6,17,0.00
2013-7-14,85.6,81.0,74.5,68.4,66.6,63.8,80,63,52,29.94,29.88,16,9,17,0.00
2013-7-15,74.5,71.1,67.3,74.1,70.2,67.2,100,97,79,30.06,29.91,15,6,15,1.73
2013-7-16,89.1,76.5,71.4,80.7,72.8,65.7,100,90,52,30.15,30.06,15,4,17,0.08
2013-7-17,87.4,75.9,71.1,78.8,71.5,67.1,100,88,56,30.21,30.15,22,3,22,0.00
2013-7-18,81.1,79.0,76.8,67.0,66.1,65.5,69,65,61,30.09,30.03,12,4,12,0.00
2013-7-19,95.7,82.4,70.9,79.9,69.0,64.5,99,67,42,30.12,29.94,15,3,15,0.28
2013-7-20,96.1,83.1,71.4,79.5,69.8,65.3,96,67,42,30.03,29.88,15,5,15,0.00
2013-7-21,97.7,82.3,72.5,80.6,72.2,68.8,95,74,43,30.00,29.91,16,5,16,0.00
2013-7-22,97.0,85.6,76.5,79.7,72.6,67.7,92,68,43,30.03,29.91,17,9,17,0.00
2013-7-23,97.3,86.1,76.8,78.8,70.8,64.5,88,63,38,30.03,29.91,18,9,19,0.00
2013-7-24,97.7,85.8,75.2,77.2,72.6,66.5,91,68,42,30.03,29.91,17,6,17,0.00
2013-7-25,99.5,93.3,82.9,71.6,68.0,63.6,55,44,39,30.06,30.00,13,5,15,0.00
2013-7-26,100.9,82.7,75.9,75.4,70.1,65.0,85,67,40,30.06,29.91,17,7,17,0.00
2013-7-27,89.6,80.6,75.0,75.5,70.8,65.4,97,74,48,30.03,29.94,13,5,13,0.00
2013-7-28,96.8,83.3,68.9,79.2,71.2,66.3,98,71,44,30.00,29.88,15,5,16,0.00
2013-7-29,98.8,86.7,76.8,75.3,70.0,63.3,87,61,34,30.03,29.94,21,9,22,0.00
2013-7-30,101.8,86.8,75.2,76.2,69.6,62.8,88,60,34,30.12,30.00,18,8,21,0.00
2013-7-31,103.3,88.6,74.7,75.1,66.8,61.7,86,52,31,30.12,29.97,17,6,17,0.00
2013-8-1,104.7,89.8,74.7,73.0,66.8,60.8,78,49,31,30.06,29.94,11,4,12,0.00
2013-8-2,102.6,84.4,76.5,68.8,64.6,62.0,62,53,31,30.00,29.91,16,5,16,0.00
2013-8-3,101.8,88.4,75.9,75.5,67.9,63.5,84,54,32,30.06,29.97,17,7,17,0.00
2013-8-4,100.0,88.5,75.7,77.6,70.3,65.0,85,57,40,30.12,29.97,17,6,18,0.00
2013-8-5,102.9,89.1,75.2,73.2,67.0,61.7,79,51,31,30.06,29.91,17,8,20,0.00
2013-8-6,104.0,89.4,75.2,74.1,68.6,60.7,82,53,31,30.00,29.85,19,8,20,0.00
2013-8-7,105.4,90.1,76.3,74.8,68.7,57.2,84,53,30,29.97,29.82,17,7,17,0.00
2013-8-8,104.5,89.6,75.6,74.2,67.9,58.3,85,53,30,29.94,29.82,17,7,18,0.00
2013-8-9,104.4,89.0,74.7,76.1,65.5,55.5,89,51,24,30.00,29.91,17,6,17,0.00
2013-8-10,103.5,88.9,75.4,72.5,67.1,55.6,79,51,32,30.09,29.97,17,5,21,0.00
2013-8-11,101.1,86.8,76.3,76.5,69.6,65.5,81,60,35,30.12,30.00,22,5,26,0.00
2013-8-12,100.2,86.3,73.9,75.7,68.6,63.3,89,59,35,30.12,29.97,17,5,17,0.00
2013-8-13,103.1,90.1,76.5,71.9,67.3,59.9,78,50,30,30.06,29.91,17,7,17,0.00
2013-8-14,105.4,87.0,78.8,71.6,68.3,61.6,76,56,31,30.03,29.94,22,6,22,0.00
2013-8-15,95.4,80.5,70.3,77.8,72.8,68.7,100,80,45,30.06,29.94,15,3,16,0.59
2013-8-16,90.0,77.7,71.1,78.3,69.9,62.3,100,81,43,30.12,29.97,14,2,14,0.00
2013-8-17,93.9,80.1,68.2,73.3,65.3,58.1,96,65,34,30.09,29.97,17,4,17,0.00
2013-8-18,95.5,76.8,66.0,68.0,62.3,57.9,89,64,33,30.09,30.00,13,2,16,0.00
2013-8-19,98.1,80.6,68.9,69.6,62.9,58.3,79,57,34,30.09,29.94,13,4,13,0.00
2013-8-20,96.4,83.4,68.7,70.3,63.2,59.4,82,54,33,30.06,29.97,15,5,15,0.00
2013-8-21,98.4,80.5,71.6,76.9,67.8,65.2,91,68,38,30.12,30.00,15,4,16,0.00
2013-8-22,96.8,84.4,71.8,78.8,69.3,64.6,92,64,39,30.12,29.97,13,4,14,0.00
2013-8-23,100.2,86.7,73.4,77.1,67.8,62.8,87,57,34,30.06,29.94,15,4,15,0.00
2013-8-24,101.5,87.3,75.6,73.1,67.1,62.9,78,53,35,30.09,29.97,17,4,19,0.00
2013-8-25,96.4,85.5,73.9,74.9,68.3,65.8,85,59,40,30.12,30.03,22,5,22,0.00
2013-8-26,92.7,81.4,74.7,71.6,69.1,65.8,87,68,44,30.18,30.06,17,6,17,0.00
2013-8-27,89.1,77.9,73.8,78.6,71.2,64.5,92,81,53,30.15,30.06,19,6,20,0.04
2013-8-28,97.7,82.8,70.9,81.1,69.5,64.0,99,69,38,30.15,30.03,13,4,17,0.00
2013-8-29,86.5,81.5,79.7,64.6,63.6,61.1,60,55,44,30.09,30.00,6,3,6,0.00
2013-8-30,103.8,89.0,74.8,68.2,64.2,61.0,67,46,31,30.06,29.91,11,3,12,0.00
2013-8-31,103.8,88.9,74.8,70.7,65.7,62.0,73,48,32,29.97,29.85,13,4,13,0.00
2013-9-1,103.1,88.7,74.7,73.3,66.5,62.8,77,50,32,29.97,29.85,15,5,17,0.00
2013-9-2,100.0,87.4,76.6,72.0,67.6,62.4,76,53,36,30.03,29.88,18,6,18,0.00
2013-9-3,102.9,85.6,73.2,71.6,66.7,63.0,81,56,31,30.06,29.91,16,4,17,0.00
2013-9-4,99.0,83.8,75.2,78.0,69.3,62.8,91,64,39,30.09,29.97,31,4,31,0.35
2013-9-5,97.3,83.3,71.8,80.1,69.9,65.1,97,68,39,30.15,30.03,16,3,16,0.24
2013-9-6,97.2,84.3,71.8,77.9,68.9,64.0,94,63,39,30.12,29.97,16,4,17,0.00
2013-9-7,97.5,83.2,72.7,79.7,69.6,64.7,92,67,37,30.09,29.94,25,4,28,0.00
2013-9-8,95.5,80.7,70.7,80.2,69.4,66.0,97,72,42,30.03,29.91,18,5,20,0.00
2013-9-9,94.1,79.3,71.1,76.9,69.2,64.3,94,74,43,30.03,29.94,24,4,25,0.00
2013-9-10,93.4,78.7,70.7,79.8,70.5,66.1,100,79,43,30.09,30.00,21,6,22,0.00
2013-9-11,75.4,73.7,72.9,70.4,69.3,68.4,91,86,80,30.09,30.09,4,1,5,0.00
2013-9-12,95.9,82.5,69.8,76.9,66.3,59.9,93,62,34,30.12,29.94,14,4,16,0.00
2013-9-13,98.6,84.6,72.0,72.8,64.2,59.1,84,54,32,30.00,29.85,15,4,15,0.00
2013-9-14,98.6,84.6,71.4,67.3,63.6,58.9,76,51,34,29.97,29.88,16,5,16,0.00
2013-9-15,94.3,83.0,72.5,74.6,67.6,63.3,87,62,41,30.06,29.94,14,5,15,0.00
2013-9-16,95.2,81.9,72.5,75.6,69.0,65.3,89,67,42,30.09,30.00,17,4,17,0.00
2013-9-17,94.3,81.4,73.2,78.6,70.4,65.5,95,72,43,30.09,29.97,15,3,16,0.00
2013-9-18,96.6,82.3,71.2,78.5,69.2,62.2,95,68,38,30.06,29.91,16,5,16,0.00
2013-9-19,86.4,80.8,74.5,73.0,70.8,67.3,94,73,59,29.97,29.85,13,4,13,0.04
2013-9-20,76.8,73.5,69.6,76.8,73.3,69.6,100,99,94,29.91,29.85,18,4,18,0.00
2013-9-21,82.9,72.5,63.9,70.5,61.3,48.6,100,73,38,29.97,29.88,17,6,19,0.04
2013-9-22,83.8,69.3,56.7,58.9,53.4,49.2,87,60,36,29.94,29.82,15,2,15,0.00
2013-9-23,88.2,72.0,56.7,64.6,55.7,52.9,91,61,34,29.88,29.79,13,2,13,0.00
2013-9-24,93.7,77.3,61.9,65.2,58.3,52.4,84,55,34,29.97,29.85,11,2,14,0.00
2013-9-25,95.9,79.4,66.0,70.7,63.2,59.5,86,61,37,29.94,29.79,13,3,13,0.00
2013-9-26,76.5,76.3,75.7,59.6,59.5,59.0,56,56,56,29.85,29.85,6,5,8,0.00
2013-9-27,79.7,78.5,77.9,75.8,74.1,73.0,92,86,84,29.91,29.85,13,5,13,12.68
2013-9-28,90.0,80.1,73.8,80.1,75.1,70.1,98,86,58,30.03,29.88,17,6,17,0.08
2013-9-29,75.0,68.6,63.5,73.3,65.6,59.9,100,91,62,30.09,29.97,11,5,11,0.47
2013-9-30,86.4,71.3,57.7,72.6,60.7,55.2,100,74,41,30.00,29.82,10,3,11,0.00
2013-10-1,88.5,73.5,67.5,79.7,65.9,57.3,96,78,51,29.94,29.85,15,5,15,0.00
2013-10-2,90.3,80.1,74.3,79.4,71.5,65.1,96,77,51,30.00,29.88,15,6,15,0.00
2013-10-3,90.9,80.4,72.5,77.1,70.5,65.5,95,74,49,29.97,29.85,15,6,15,0.00
2013-10-4,90.0,79.3,72.0,74.3,69.6,67.3,93,74,49,29.94,29.85,23,8,23,0.00
2013-10-5,87.6,74.4,61.5,76.0,63.3,42.9,93,70,49,30.12,29.91,15,5,15,0.00
2013-10-6,79.0,64.2,51.6,54.1,48.3,40.7,99,61,30,30.18,30.09,14,5,15,0.04
2013-10-7,83.3,65.4,49.6,52.0,46.6,40.8,77,54,31,30.21,30.06,10,3,11,0.00
2013-10-8,84.6,68.2,52.3,58.0,50.5,44.8,81,56,35,30.12,30.00,13,4,13,0.00
2013-10-9,83.8,69.7,57.7,64.2,54.8,46.8,84,61,44,30.09,29.97,17,6,17,0.00
2013-10-10,85.1,72.4,61.7,72.9,62.2,55.6,96,72,48,30.06,29.91,17,6,17,0.00
2013-10-11,83.8,78.0,71.2,72.0,67.2,63.6,82,70,59,29.94,29.88,14,5,16,13.27
2013-10-12,91.2,79.9,74.5,79.4,72.6,67.5,97,80,52,30.06,29.91,16,5,16,0.00
2013-10-13,76.1,70.7,66.2,76.1,70.1,66.2,100,98,84,30.21,30.03,16,6,16,1.30
2013-10-14,81.1,74.5,70.7,79.7,73.0,70.0,100,95,80,30.12,29.94,13,5,15,0.04
2013-10-15,83.5,72.8,57.6,75.4,69.4,55.7,97,90,65,30.06,29.91,14,6,15,0.00
2013-10-16,61.0,56.9,52.9,60.1,56.5,52.9,100,99,94,30.12,30.00,11,4,11,0.94
2013-10-17,72.1,60.4,49.3,57.9,51.1,46.9,98,75,46,30.15,30.00,11,3,12,0.00
2013-10-18,70.7,63.3,56.7,63.9,57.7,49.5,93,82,73,30.03,29.91,10,4,11,0.00
2013-10-19,66.0,56.0,46.6,64.3,45.2,39.3,96,70,42,30.24,30.03,15,6,16,0.00
2013-10-20,73.4,51.3,43.5,55.3,45.1,40.2,91,81,48,30.12,29.91,15,4,16,0.00
2013-10-21,79.3,66.1,56.3,69.6,58.5,48.2,93,77,61,30.09,29.94,13,4,13,0.00
2013-10-22,74.1,61.5,51.6,54.6,47.7,42.2,88,64,36,30.21,30.09,13,5,16,0.00
2013-10-23,80.8,62.7,46.9,53.2,46.6,41.5,85,59,36,30.21,30.09,13,3,13,0.00
2013-10-24,80.2,65.6,51.1,54.7,47.2,41.0,77,53,37,30.27,30.15,12,3,12,0.00
2013-10-25,77.2,65.2,51.6,60.2,54.2,46.6,89,68,53,30.35,30.21,13,4,13,0.00
2013-10-26,81.0,70.2,64.9,71.4,62.7,58.8,95,79,56,30.24,30.09,17,6,17,0.00
2013-10-27,71.4,66.2,61.9,66.8,62.5,59.3,100,88,71,30.15,30.03,12,3,14,0.24
2013-10-28,80.4,71.0,64.0,75.2,66.7,61.0,100,87,60,30.09,30.00,17,7,22,0.00
2013-10-29,82.8,74.8,70.0,75.5,68.3,65.6,94,81,61,30.09,30.00,17,8,18,0.00
2013-10-30,81.0,74.3,71.1,75.8,71.4,66.9,99,91,78,30.06,29.85,18,4,18,0.00
2013-10-31,77.4,70.4,55.4,72.0,57.0,39.5,100,68,30,29.91,29.76,20,5,20,0.08
2013-11-1,58.1,53.7,50.2,45.2,42.7,41.0,72,66,61,29.91,29.91,6,2,6,0.00
2013-11-3,70.9,65.0,59.5,47.9,43.9,40.9,62,47,41,30.12,30.03,15,6,15,0.00
2013-11-4,65.1,61.8,59.7,63.0,57.4,48.5,98,86,63,30.09,29.97,17,4,17,0.04
2013-11-5,77.2,68.8,63.1,76.7,66.9,62.6,100,94,76,30.03,29.91,15,5,17,0.00
2013-11-6,69.6,59.3,49.1,68.4,54.6,39.9,100,86,60,30.35,30.00,19,5,19,0.08
2013-11-7,64.8,51.6,39.4,43.8,38.3,35.0,90,63,40,30.50,30.35,15,4,15,0.08
2013-11-8,66.0,55.6,47.8,49.0,43.5,39.6,83,66,43,30.41,30.18,13,2,13,0.00
2013-11-9,68.4,58.5,55.0,57.2,49.1,44.0,84,71,64,30.21,30.12,14,4,14,0.00
2013-11-10,70.9,60.9,58.5,63.6,56.8,54.7,95,87,62,30.32,30.21,10,2,10,0.00
2013-11-11,74.7,61.2,48.0,63.4,52.9,46.8,98,77,49,30.29,30.18,10,2,10,0.00
2013-11-12,57.9,51.6,40.5,57.6,44.2,26.0,100,77,55,30.65,30.27,20,5,20,0.00
2013-11-13,54.3,41.6,29.5,33.1,26.2,19.9,70,55,42,30.65,30.41,10,3,11,0.00
2013-11-14,55.9,40.2,32.5,43.0,28.2,22.9,69,62,53,30.41,30.06,10,2,10,0.00
2013-11-15,77.7,62.0,45.5,63.0,51.1,41.9,92,69,48,30.06,29.88,13,4,16,0.00
2013-11-16,79.7,69.9,61.0,68.0,63.4,54.1,94,81,60,29.94,29.76,25,9,28,0.00
2013-11-17,85.8,73.5,59.2,77.1,61.7,47.5,100,71,35,29.97,29.79,17,3,17,0.00
2013-11-18,74.5,63.7,53.4,57.4,51.1,46.3,82,64,51,30.12,29.97,11,2,13,0.00
2013-11-19,71.8,61.7,48.7,51.2,46.5,42.9,84,59,42,30.18,30.00,13,4,15,0.00
2013-11-20,73.8,64.5,58.1,63.7,56.6,49.5,91,76,64,30.03,29.91,15,6,15,0.00
2013-11-21,77.7,70.1,66.0,75.8,68.9,63.5,100,96,82,30.06,29.94,12,4,15,0.00
2013-11-22,69.8,45.5,34.3,68.9,45.4,34.2,100,100,95,30.41,30.06,19,7,20,3.82
2013-11-23,40.3,37.1,34.5,40.3,36.7,34.5,100,98,93,30.47,30.38,18,7,18,0.04
2013-11-24,40.6,37.7,33.6,40.3,32.9,27.1,100,83,66,30.50,30.32,17,6,17,0.08
2013-11-25,40.6,37.8,33.6,39.2,35.6,31.8,97,92,88,30.35,30.09,15,4,15,0.00
2013-11-26,50.5,39.0,35.8,35.7,33.5,27.1,96,82,51,30.38,30.15,21,7,21,0.00
2013-11-27,48.6,39.3,31.1,28.9,25.1,22.4,72,57,43,30.50,30.35,14,4,15,0.00
2013-11-28,54.7,41.0,32.7,35.4,28.6,24.0,78,62,45,30.44,30.32,14,3,14,0.00
2013-11-29,61.7,46.7,30.9,53.3,39.9,24.6,93,78,62,30.50,30.35,10,2,12,0.00
2013-11-30,65.1,55.3,50.2,55.3,50.1,46.2,92,83,70,30.38,30.21,12,2,13,0.00
2013-12-1,70.2,58.3,51.3,65.7,55.9,49.7,100,92,64,30.24,29.97,20,4,20,0.00
2013-12-2,78.4,70.1,51.3,59.6,49.5,39.0,98,52,36,29.97,29.70,15,5,17,0.00
2013-12-3,81.9,69.5,51.6,50.9,45.3,37.8,63,43,32,29.73,29.62,12,4,12,0.00
2013-12-4,78.1,66.3,56.7,62.8,54.1,44.2,93,66,48,29.82,29.67,13,4,14,0.00
2013-12-5,62.8,43.7,30.9,61.9,36.7,22.9,100,77,58,30.12,29.79,15,7,17,0.00
2013-12-6,33.8,31.2,27.7,32.7,27.2,20.2,100,85,72,30.44,30.09,16,7,17,0.00
2013-12-7,29.3,26.5,24.1,21.6,17.9,15.1,76,70,66,30.47,30.29,15,7,15,0.00
2013-12-8,51.3,35.9,28.0,41.1,29.3,21.3,86,77,64,30.32,30.00,11,2,11,20.24
2013-12-9,39.2,36.0,33.1,38.9,34.0,30.4,100,93,85,30.38,30.06,13,3,15,0.00
2013-12-10,45.5,34.4,26.4,32.7,24.9,20.0,99,70,46,30.50,30.32,11,1,13,0.00
2013-12-11,55.4,44.4,28.2,38.0,30.3,21.8,83,59,43,30.56,30.32,10,2,10,0.00
2013-12-12,53.8,40.9,30.0,36.2,29.8,23.4,86,65,50,30.59,30.32,8,1,8,0.00
2013-12-13,49.8,45.8,43.2,48.8,38.7,33.3,97,77,66,30.32,29.91,14,3,14,0.08
2013-12-14,49.8,43.9,38.5,47.6,39.4,28.9,100,86,55,30.35,29.88,17,4,17,0.00
2013-12-15,59.2,44.4,32.7,37.4,30.6,24.7,78,60,42,30.41,30.27,9,3,9,0.00
2013-12-16,66.2,48.7,32.9,41.7,33.9,25.9,81,59,40,30.29,30.18,13,4,13,0.00
2013-12-17,68.5,51.2,34.5,45.2,36.0,28.0,83,58,39,30.32,30.24,10,2,10,0.00
2013-12-18,68.2,53.4,38.1,57.0,43.2,31.5,87,69,51,30.29,30.09,15,4,18,0.00
2013-12-19,71.6,63.1,54.1,61.0,56.5,48.5,92,80,60,30.09,29.82,29,9,30,0.00
2013-12-20,72.7,67.2,63.0,68.2,63.8,60.6,97,89,68,29.88,29.67,20,8,23,0.00
2013-12-21,69.6,52.4,41.4,68.4,45.7,34.6,100,81,48,29.82,29.59,21,5,21,0.55
2013-12-22,51.1,44.4,36.1,40.8,34.3,26.4,95,68,53,30.38,29.82,15,4,17,0.00
2013-12-23,53.2,39.4,29.3,33.3,28.0,23.8,87,65,44,30.53,30.38,8,2,8,0.00
2013-12-24,58.5,43.2,30.2,38.8,30.5,24.5,85,63,42,30.53,30.27,15,4,15,0.55
2013-12-25,59.7,46.9,36.3,48.6,38.7,28.1,91,74,59,30.41,30.24,15,2,15,0.00
2013-12-26,54.5,44.4,35.6,39.1,36.1,33.0,93,74,54,30.44,30.32,8,2,8,0.00
2013-12-27,57.4,49.3,41.5,48.3,40.8,36.5,92,74,50,30.44,30.32,8,1,10,0.00
2013-12-28,64.2,50.2,38.8,51.6,42.2,35.0,94,75,51,30.35,30.03,13,3,13,0.00
2013-12-29,58.1,51.5,31.8,50.4,46.4,30.7,97,83,67,30.29,29.97,14,4,16,0.00
2013-12-30,46.2,36.6,31.1,31.8,26.1,21.1,99,67,50,30.38,30.24,14,4,15,0.00
2013-12-31,55.9,42.9,33.6,36.4,31.6,28.3,84,65,47,30.47,30.27,11,3,11,0.00
2014-1-1,67.8,51.1,36.1,52.5,40.6,26.6,91,68,57,30.27,29.97,30,8,30,0.00
2014-1-2,52.0,40.8,32.0,50.0,28.1,22.3,94,61,46,30.44,30.09,20,6,20,0.00